TimeCDT,TemperatureF,Dew PointF,Humidity,Sea Level PressureIn,VisibilityMPH,Wind Direction,Wind SpeedMPH,Gust SpeedMPH,PrecipitationIn,Events,Conditions,WindDirDegrees,DateUTC
12:15 AM,57.2,53.8,88,30.15,4.0,South,13.8,17.3,N/A,,Overcast,170,2013-09-17 05:15:00
12:35 AM,57.0,53.6,88,30.15,3.0,South,13.8,18.4,N/A,,Overcast,170,2013-09-17 05:35:00
12:55 AM,56.8,54.0,90,30.14,3.0,South,11.5,17.3,N/A,,Overcast,180,2013-09-17 05:55:00
1:15 AM,56.8,53.8,89,30.14,4.0,South,10.4,-,N/A,,Overcast,170,2013-09-17 06:15:00
1:35 AM,56.8,53.6,89,30.14,10.0,South,11.5,-,N/A,,Overcast,170,2013-09-17 06:35:00
1:55 AM,56.8,53.6,89,30.13,10.0,South,9.2,-,N/A,,Overcast,170,2013-09-17 06:55:00
2:15 AM,57.0,53.6,88,30.12,10.0,South,10.4,-,N/A,,Overcast,170,2013-09-17 07:15:00
2:35 AM,57.2,53.6,88,30.12,10.0,South,10.4,-,N/A,,Overcast,170,2013-09-17 07:35:00
2:55 AM,57.2,53.6,88,30.11,10.0,South,10.4,-,N/A,,Overcast,170,2013-09-17 07:55:00
3:15 AM,57.2,53.6,88,30.10,10.0,South,10.4,-,N/A,,Overcast,170,2013-09-17 08:15:00
3:35 AM,57.4,53.6,87,30.09,10.0,South,9.2,-,N/A,,Overcast,170,2013-09-17 08:35:00
3:55 AM,57.4,53.6,87,30.08,10.0,South,10.4,-,N/A,,Overcast,170,2013-09-17 08:55:00
4:15 AM,57.6,53.6,87,30.08,10.0,South,10.4,-,N/A,,Overcast,170,2013-09-17 09:15:00
4:35 AM,57.7,53.8,87,30.07,10.0,South,10.4,-,N/A,,Overcast,170,2013-09-17 09:35:00
4:55 AM,57.9,54.0,87,30.06,10.0,South,12.7,16.1,N/A,,Overcast,170,2013-09-17 09:55:00
5:15 AM,58.1,53.8,86,30.06,10.0,South,10.4,-,N/A,,Overcast,170,2013-09-17 10:15:00
5:35 AM,58.1,53.6,85,30.05,10.0,South,9.2,-,N/A,,Overcast,170,2013-09-17 10:35:00
5:55 AM,58.1,53.8,86,30.04,10.0,SSE,9.2,-,N/A,,Overcast,160,2013-09-17 10:55:00
6:15 AM,58.1,53.8,86,30.04,10.0,SSE,8.1,16.1,N/A,,Overcast,160,2013-09-17 11:15:00
6:35 AM,58.3,54.0,86,30.04,10.0,South,11.5,-,N/A,,Overcast,170,2013-09-17 11:35:00
6:55 AM,58.5,54.1,86,30.03,10.0,South,13.8,-,N/A,,Overcast,170,2013-09-17 11:55:00
7:15 AM,58.3,54.1,86,30.03,10.0,SSE,12.7,18.4,N/A,,Overcast,160,2013-09-17 12:15:00
7:35 AM,58.3,54.3,87,30.03,10.0,South,10.4,-,N/A,,Overcast,170,2013-09-17 12:35:00
7:55 AM,58.5,54.5,87,30.02,10.0,SSE,12.7,18.4,N/A,,Overcast,160,2013-09-17 12:55:00
8:15 AM,58.5,54.5,87,30.02,10.0,SSE,12.7,-,N/A,,Overcast,150,2013-09-17 13:15:00
8:35 AM,59.0,54.9,86,30.02,10.0,SSE,11.5,19.6,N/A,,Overcast,160,2013-09-17 13:35:00
8:55 AM,59.0,54.9,86,30.01,10.0,SSE,10.4,-,N/A,,Overcast,160,2013-09-17 13:55:00
9:15 AM,59.4,54.9,85,30.01,10.0,South,13.8,20.7,N/A,,Overcast,170,2013-09-17 14:15:00
9:35 AM,59.5,55.0,85,30.01,10.0,SSE,12.7,17.3,N/A,,Overcast,160,2013-09-17 14:35:00
9:55 AM,60.3,55.4,84,30.01,10.0,SSE,13.8,23.0,N/A,,Overcast,160,2013-09-17 14:55:00
10:15 AM,60.8,55.6,83,30.00,10.0,SSE,16.1,-,N/A,,Overcast,160,2013-09-17 15:15:00
10:35 AM,61.3,55.8,82,30.00,10.0,SSE,12.7,21.9,N/A,,Overcast,160,2013-09-17 15:35:00
10:55 AM,62.1,55.9,80,29.99,10.0,SSE,15.0,21.9,N/A,,Overcast,160,2013-09-17 15:55:00
11:15 AM,62.6,56.3,80,29.99,10.0,South,16.1,23.0,N/A,,Overcast,170,2013-09-17 16:15:00
11:35 AM,63.3,56.7,79,29.98,10.0,SSE,18.4,21.9,N/A,,Overcast,160,2013-09-17 16:35:00
11:55 AM,63.7,57.2,79,29.97,10.0,South,18.4,26.5,N/A,,Overcast,170,2013-09-17 16:55:00
12:15 PM,64.4,57.6,78,29.97,10.0,SSE,16.1,21.9,N/A,,Overcast,160,2013-09-17 17:15:00
12:35 PM,64.4,57.6,78,29.96,10.0,South,19.6,23.0,N/A,,Overcast,170,2013-09-17 17:35:00
12:55 PM,65.3,58.1,77,29.95,10.0,South,16.1,23.0,N/A,,Overcast,170,2013-09-17 17:55:00
1:15 PM,65.3,58.1,77,29.94,10.0,South,16.1,23.0,N/A,,Overcast,180,2013-09-17 18:15:00
1:35 PM,65.8,58.5,77,29.93,10.0,South,18.4,21.9,N/A,,Overcast,170,2013-09-17 18:35:00
1:55 PM,66.2,58.8,77,29.92,10.0,South,13.8,-,N/A,,Overcast,180,2013-09-17 18:55:00
2:15 PM,67.5,59.2,75,29.91,10.0,SSE,15.0,20.7,N/A,,Overcast,160,2013-09-17 19:15:00
2:35 PM,69.1,59.9,72,29.90,10.0,South,13.8,20.7,N/A,,Overcast,180,2013-09-17 19:35:00
2:55 PM,69.1,59.7,72,29.89,10.0,South,18.4,-,N/A,,Overcast,170,2013-09-17 19:55:00
3:15 PM,69.3,59.9,72,29.88,10.0,South,15.0,-,N/A,,Overcast,180,2013-09-17 20:15:00
3:35 PM,69.1,60.1,73,29.88,10.0,South,17.3,25.3,N/A,,Overcast,180,2013-09-17 20:35:00
3:55 PM,69.1,60.3,73,29.87,10.0,South,16.1,20.7,N/A,,Overcast,190,2013-09-17 20:55:00
4:15 PM,69.3,60.4,73,29.86,10.0,South,17.3,21.9,N/A,,Overcast,180,2013-09-17 21:15:00
4:35 PM,69.3,60.8,74,29.85,10.0,South,13.8,-,N/A,,Overcast,180,2013-09-17 21:35:00
4:55 PM,69.4,61.0,74,29.85,10.0,South,11.5,19.6,N/A,,Overcast,170,2013-09-17 21:55:00
5:15 PM,69.3,61.3,76,29.84,10.0,South,13.8,-,N/A,,Overcast,170,2013-09-17 22:15:00
5:35 PM,69.1,61.7,77,29.84,10.0,South,13.8,-,N/A,,Overcast,180,2013-09-17 22:35:00
5:55 PM,69.1,61.9,78,29.84,10.0,South,12.7,-,N/A,,Overcast,180,2013-09-17 22:55:00
6:15 PM,69.3,62.1,78,29.83,10.0,South,15.0,18.4,N/A,,Overcast,170,2013-09-17 23:15:00
6:35 PM,69.4,62.6,79,29.83,10.0,SSE,11.5,-,N/A,,Overcast,160,2013-09-17 23:35:00
6:55 PM,69.3,62.6,79,29.82,10.0,South,9.2,-,N/A,,Overcast,170,2013-09-17 23:55:00
7:15 PM,69.3,62.8,80,29.82,7.0,South,10.4,-,N/A,,Overcast,170,2013-09-18 00:15:00
7:35 PM,69.1,62.8,80,29.81,7.0,South,10.4,-,N/A,,Overcast,170,2013-09-18 00:35:00
7:55 PM,68.9,62.8,81,29.81,7.0,South,6.9,-,N/A,,Mostly Cloudy,170,2013-09-18 00:55:00
8:15 PM,68.5,63.0,82,29.81,7.0,South,8.1,-,N/A,,Mostly Cloudy,170,2013-09-18 01:15:00
8:35 PM,68.0,63.0,84,29.82,7.0,SSE,8.1,-,N/A,,Mostly Cloudy,160,2013-09-18 01:35:00
8:55 PM,67.8,63.1,85,29.82,5.0,SSE,6.9,-,N/A,,Haze,160,2013-09-18 01:55:00
9:15 PM,68.4,63.9,85,29.82,5.0,South,9.2,-,N/A,,Mostly Cloudy,170,2013-09-18 02:15:00
9:35 PM,69.4,64.6,84,29.82,5.0,SSE,10.4,-,N/A,,Haze,160,2013-09-18 02:35:00
9:55 PM,69.8,64.8,84,29.82,5.0,SSE,10.4,-,N/A,,Haze,150,2013-09-18 02:55:00
10:15 PM,69.6,64.9,85,29.82,5.0,SSE,10.4,-,N/A,,Haze,150,2013-09-18 03:15:00
10:35 PM,69.1,64.8,86,29.81,5.0,SSE,9.2,-,N/A,,Scattered Clouds,150,2013-09-18 03:35:00
10:55 PM,68.7,64.4,86,29.81,5.0,SSE,10.4,-,N/A,,Scattered Clouds,150,2013-09-18 03:55:00
11:15 PM,68.0,64.4,88,29.80,4.0,SSE,10.4,-,N/A,,Scattered Clouds,150,2013-09-18 04:15:00
11:35 PM,68.0,64.4,88,29.80,4.0,SSE,10.4,-,N/A,,Scattered Clouds,160,2013-09-18 04:35:00
11:55 PM,68.0,64.4,88,29.79,4.0,SSE,10.4,-,N/A,,Clear,160,2013-09-18 04:55:00